Garissa, Kenya

4:07 PM EAT on January 23, 2018 (GMT +0300)
Garissa

Weather History for HKGA - March, 2014

Change the Weather History Date:

Tuesday, March 18, 2014

  Actual Average Record
Temperature  
Mean Temperature 87 °F -  
Max Temperature 98 °F 100 °F - ()
Min Temperature 76 °F 76 °F - ()
Cooling Degree Days 22    
Growing Degree Days 37 (Base 50)    
Moisture  
Dew Point 71 °F    
Average Humidity 63    
Maximum Humidity 94    
Minimum Humidity 27    
Precipitation  
Precipitation 0.00 in - - ()
Sea Level Pressure  
Sea Level Pressure 29.84 in    
Wind  
Wind Speed 4 mph ()    
Max Wind Speed 16 mph    
Max Gust Speed -    
Visibility 8.9 miles    
Events      
T = Trace of Precipitation, MM = Missing Value Source: Averaged Metar Reports

Daily Weather History Graph

Daily Weather History Graph

Search for Another Location

Airport or City:

Trip Planner

Search our weather history database for the weather conditions in past years. The results will help you decide how hot, cold, wet, or windy it might be!

Date:

Astronomy

Mar. 18, 2014 Rise Set
Actual Time 6:26 AM EAT 6:32 PM EAT
Civil Twilight 6:05 AM EAT 6:53 PM EAT
Nautical Twilight 5:41 AM EAT 7:17 PM EAT
Astronomical Twilight 5:17 AM EAT 7:41 PM EAT
Moon 7:54 PM EAT (3/18) 7:30 AM EAT (3/18)
Length of Visible Light 12h 47m
Length of Day
12h 06m
Full, 97% of the Moon is Illuminated
Mar 18
Full
Mar 24
Last Quarter
Mar 30
New
Apr 7
First Quarter
Apr 15
Full

Hourly Weather History & Observations

Time (EAT) Temp. Heat Index Dew Point Humidity Pressure Visibility Wind Dir Wind Speed Gust Speed Precip Events Conditions
12:00 AM 80 °F - 76 °F 84% 29.84 in 19 mi Calm Calm - -   Mostly Cloudy
1:00 AM 78.8 °F - 75.2 °F 89% 29.86 in - Calm Calm - N/A   Clear
2:00 AM 78.8 °F - 75.2 °F 89% 29.83 in - Calm Calm - N/A   Clear
3:00 AM 78 °F - 76 °F 90% 29.83 in 19 mi Calm Calm - -   Scattered Clouds
4:00 AM 78.8 °F - 75.2 °F 89% 29.83 in - Calm Calm - N/A   Clear
5:00 AM 78.8 °F - 75.2 °F 89% 29.83 in - Calm Calm - N/A   Clear
7:00 AM 78.8 °F - 77.0 °F 94% 29.86 in 6.2 mi Calm Calm - N/A   Mostly Cloudy
8:00 AM 80.6 °F 86.2 °F 75.2 °F 84% 29.89 in 6.2 mi Calm Calm - N/A   Mostly Cloudy
9:00 AM 83 °F - 74 °F 69% 29.93 in 25 mi East 4.6 mph - -   Mostly Cloudy
10:00 AM 86.0 °F 93.4 °F 73.4 °F 66% 29.95 in 6.2 mi East 6.9 mph - N/A   Mostly Cloudy
11:00 AM 89.6 °F 98.2 °F 73.4 °F 59% 29.92 in 6.2 mi NE 9.2 mph - N/A   Mostly Cloudy
12:00 PM 90 °F - 72 °F 46% 29.86 in 25 mi East 8.1 mph - -   Mostly Cloudy
1:00 PM 93.2 °F 98.8 °F 69.8 °F 46% 29.86 in 6.2 mi North 9.2 mph - N/A   Mostly Cloudy
2:00 PM 93.2 °F 98.8 °F 69.8 °F 46% 29.86 in 6.2 mi SE 6.9 mph - N/A   Scattered Clouds
3:00 PM 96 °F - 65 °F 27% 29.80 in 25 mi NE 8.1 mph - -   Partly Cloudy
4:00 PM 98.6 °F 100.0 °F 62.6 °F 30% 29.77 in 6.2 mi NE 11.5 mph - N/A   Scattered Clouds
5:00 PM 96.8 °F 98.0 °F 62.6 °F 32% 29.80 in 6.2 mi NNE 13.8 mph - N/A   Scattered Clouds
6:00 PM 92 °F - 67 °F 33% 29.78 in 22 mi North 15.0 mph - -   Partly Cloudy
7:00 PM 89.6 °F 92.2 °F 66.2 °F 46% 29.80 in 6.2 mi East 16.1 mph - N/A   Mostly Cloudy
8:00 PM 86.0 °F 90.4 °F 69.8 °F 58% 29.83 in 6.2 mi SE 11.5 mph - N/A   Mostly Cloudy
9:00 PM 85 °F - 69 °F 50% 29.82 in 19 mi South 9.2 mph - -   Partly Cloudy
10:00 PM 84.2 °F 88.4 °F 69.8 °F 62% 29.83 in 6.2 mi SSE 9.2 mph - N/A   Scattered Clouds